Zurück zum Katalog

STARLINK-32716

AktivKommunikationVLEO
NORAD 63031·PAYLOAD·🇺🇸 United States

Gestartet Feb 18, 2025 von Cape Canaveral Space Force Station

Loading…

Nächste Überflüge (nächste 24 Stunden)

TLE

AktuellSource: CelesTrak SupGP

Epoche: Sep 15, 2026, 03:00 UTC

1 63031C 25034C   26258.12548611 -.00012722  00000+0 -37591-3 0  2589
2 63031  53.1574  94.5353 0001274  83.9396 223.5368 15.34394511    17

Verfolge STARLINK-32716 in Echtzeit mit AllMySat

Download on the App Store